| time (UTC) | temp F | wind direction | speed knots | gust knots | rain 1hr in | rain 24hr in | rain mn in | humidity % | barometer mb |
| 20260507222807 | 69 | 309 | 6.1 | 11.3 | 0.00 | 0.00 | 0.00 | 37 | 1011.8 |
| 20260507221831 | 70 | 312 | 4.3 | 10.4 | 0.00 | 0.00 | 0.00 | 34 | 1011.9 |
| 20260507215702 | 71 | 348 | 5.2 | 9.6 | 0.00 | 0.00 | 0.00 | 32 | 1011.6 |
| 20260507213520 | 71 | 275 | 4.3 | 9.6 | 0.00 | 0.00 | 0.00 | 29 | 1011.6 |
| 20260507211310 | 71 | 317 | 3.5 | 10.4 | 0.00 | 0.00 | 0.00 | 32 | 1011.9 |
| 20260507210258 | 71 | 288 | 3.5 | 8.7 | 0.00 | 0.00 | 0.00 | 27 | 1011.9 |
| 20260507205259 | 71 | 336 | 3.5 | 8.7 | 0.00 | 0.00 | 0.00 | 29 | 1012.1 |
| 20260507204232 | 70 | 302 | 1.7 | 7.8 | 0.00 | 0.00 | 0.00 | 31 | 1012.2 |
| 20260507202104 | 70 | 305 | 3.5 | 9.6 | 0.00 | 0.00 | 0.00 | 34 | 1012.4 |
| 20260507201126 | 69 | 336 | 4.3 | 9.6 | 0.00 | 0.00 | 0.00 | 32 | 1012.7 |
| 20260507200112 | 69 | 309 | 4.3 | 12.2 | 0.00 | 0.00 | 0.00 | 35 | 1012.6 |
| 20260507195040 | 69 | 290 | 5.2 | 12.2 | 0.00 | 0.00 | 0.00 | 37 | 1012.7 |
| 20260507194042 | 69 | 263 | 4.3 | 13.0 | 0.00 | 0.00 | 0.00 | 35 | 1012.6 |
| 20260507193053 | 69 | 269 | 7.0 | 13.0 | 0.00 | 0.00 | 0.00 | 37 | 1012.8 |
| 20260507192108 | 68 | 258 | 7.8 | 13.0 | 0.00 | 0.00 | 0.00 | 38 | 1012.9 |
| 20260507191047 | 68 | 249 | 8.7 | 13.0 | 0.00 | 0.00 | 0.00 | 36 | 1013.0 |
| 20260507190111 | 67 | 267 | 9.6 | 13.9 | 0.00 | 0.00 | 0.00 | 37 | 1012.9 |
| 20260507185057 | 66 | 272 | 7.8 | 13.9 | 0.00 | 0.00 | 0.00 | 36 | 1012.8 |
| 20260507184115 | 66 | 289 | 7.0 | 12.2 | 0.00 | 0.00 | 0.00 | 38 | 1013.0 |
| 20260507181943 | 65 | 277 | 7.0 | 13.0 | 0.00 | 0.00 | 0.00 | 37 | 1013.4 |
| 20260507180956 | 65 | 254 | 7.0 | 13.0 | 0.00 | 0.00 | 0.00 | 43 | 1013.4 |
| 20260507175946 | 65 | 246 | 6.1 | 12.2 | 0.00 | 0.00 | 0.00 | 42 | 1013.2 |
| 20260507174946 | 63 | 224 | 7.8 | 12.2 | 0.00 | 0.00 | 0.00 | 49 | 1013.4 |
| 20260507173925 | 63 | 271 | 6.1 | 12.2 | 0.00 | 0.00 | 0.00 | 47 | 1013.4 |
| 20260507172851 | 62 | 247 | 7.0 | 12.2 | 0.00 | 0.00 | 0.00 | 49 | 1013.7 |
| 20260507171821 | 62 | 261 | 6.1 | 11.3 | 0.00 | 0.00 | 0.00 | 53 | 1013.6 |
| 20260507170757 | 61 | 249 | 4.3 | 9.6 | 0.00 | 0.00 | 0.00 | 55 | 1013.6 |
| 20260507165738 | 60 | 246 | 4.3 | 9.6 | 0.00 | 0.00 | 0.00 | 59 | 1013.5 |
| 20260507164715 | 60 | 221 | 4.3 | 8.7 | 0.00 | 0.00 | 0.00 | 59 | 1013.5 |
| 20260507163704 | 59 | 228 | 5.2 | 8.7 | 0.00 | 0.00 | 0.00 | 61 | 1013.5 |
| 20260507162729 | 59 | 238 | 4.3 | 8.7 | 0.00 | 0.00 | 0.00 | 63 | 1013.6 |
| 20260507161707 | 59 | 250 | 5.2 | 9.6 | 0.00 | 0.00 | 0.00 | 62 | 1013.7 |
| 20260507160641 | 58 | 265 | 6.1 | 11.3 | 0.00 | 0.00 | 0.00 | 64 | 1013.6 |
| 20260507155647 | 58 | 269 | 6.1 | 11.3 | 0.00 | 0.00 | 0.00 | 65 | 1013.6 |
| 20260507154614 | 58 | 248 | 5.2 | 9.6 | 0.00 | 0.00 | 0.00 | 67 | 1013.7 |
| 20260507153545 | 57 | 246 | 6.1 | 10.4 | 0.00 | 0.00 | 0.00 | 69 | 1013.9 |
| 20260507152517 | 56 | 225 | 7.0 | 10.4 | 0.00 | 0.00 | 0.00 | 70 | 1013.8 |
| 20260507151536 | 55 | 247 | 6.1 | 8.7 | 0.00 | 0.00 | 0.00 | 71 | 1014.1 |
| 20260507150507 | 55 | 232 | 7.0 | 11.3 | 0.00 | 0.00 | 0.00 | 73 | 1014.1 |
| 20260507145505 | 54 | 238 | 7.8 | 13.0 | 0.00 | 0.00 | 0.00 | 76 | 1013.7 |
| 20260507144448 | 53 | 244 | 8.7 | 13.0 | 0.00 | 0.00 | 0.00 | 79 | 1013.8 |
| 20260507143450 | 52 | 232 | 7.8 | 12.2 | 0.00 | 0.00 | 0.00 | 82 | 1013.9 |
| 20260507141322 | 48 | 220 | 2.6 | 4.3 | 0.00 | 0.00 | 0.00 | 90 | 1014.2 |
| 20260507140329 | 47 | 217 | 0.0 | 3.5 | 0.00 | 0.00 | 0.00 | 89 | 1014.5 |
| 20260507135350 | 46 | 225 | 0.0 | 0.0 | 0.00 | 0.00 | 0.00 | 89 | 1014.2 |
| 20260507134413 | 45 | 225 | 0.0 | 0.0 | 0.00 | 0.00 | 0.00 | 90 | 1014.5 |
| 20260507133427 | 43 | 225 | 0.0 | 0.0 | 0.00 | 0.00 | 0.00 | 89 | 1014.7 |
| 20260507132403 | 43 | 216 | 0.0 | 0.0 | 0.00 | 0.00 | 0.00 | 88 | 1014.6 |
| 20260507131354 | 43 | 216 | 0.0 | 3.5 | 0.00 | 0.00 | 0.00 | 89 | 1014.6 |
| 20260507130413 | 43 | 305 | 0.0 | 3.5 | 0.00 | 0.00 | 0.00 | 86 | 1014.5 |
| 20260507125354 | 44 | 182 | 1.7 | 2.6 | 0.00 | 0.00 | 0.00 | 88 | 1014.1 |
| 20260507124406 | 44 | 175 | 1.7 | 2.6 | 0.00 | 0.00 | 0.00 | 88 | 1014.1 |
| 20260507123346 | 44 | 182 | 1.7 | 2.6 | 0.00 | 0.00 | 0.00 | 88 | 1014.1 |
| 20260507122359 | 44 | 171 | 1.7 | 3.5 | 0.00 | 0.00 | 0.00 | 87 | 1014.0 |
| 20260507121351 | 45 | 170 | 1.7 | 3.5 | 0.00 | 0.00 | 0.00 | 86 | 1014.0 |
| 20260507120406 | 44 | 161 | 0.9 | 1.7 | 0.00 | 0.00 | 0.00 | 88 | 1014.1 |
| 20260507115412 | 44 | 163 | 0.9 | 1.7 | 0.00 | 0.00 | 0.00 | 85 | 1013.8 |
| 20260507114426 | 46 | 200 | 0.0 | 1.7 | 0.00 | 0.00 | 0.00 | 84 | 1013.5 |
| 20260507112337 | 46 | 172 | 0.9 | 2.6 | 0.00 | 0.00 | 0.00 | 86 | 1013.6 |
| 20260507111329 | 46 | 176 | 1.7 | 3.5 | 0.00 | 0.00 | 0.00 | 84 | 1013.4 |
| 20260507110320 | 47 | 177 | 1.7 | 4.3 | 0.00 | 0.00 | 0.00 | 83 | 1013.5 |
| 20260507103100 | 49 | 198 | 4.3 | 7.0 | 0.00 | 0.00 | 0.00 | 80 | 1012.7 |
| 20260507102116 | 50 | 199 | 3.5 | 5.2 | 0.00 | 0.00 | 0.00 | 79 | 1012.8 |
| 20260507100013 | 51 | 211 | 4.3 | 7.8 | 0.00 | 0.00 | 0.00 | 77 | 1012.6 |
| 20260507094955 | 52 | 213 | 5.2 | 7.8 | 0.00 | 0.00 | 0.00 | 76 | 1012.5 |
| 20260507092826 | 52 | 200 | 4.3 | 9.6 | 0.00 | 0.00 | 0.00 | 76 | 1012.4 |
| 20260507091802 | 52 | 202 | 4.3 | 9.6 | 0.00 | 0.00 | 0.00 | 77 | 1012.5 |
| 20260507090825 | 52 | 207 | 4.3 | 7.0 | 0.00 | 0.00 | 0.00 | 77 | 1012.5 |
| 20260507085803 | 52 | 208 | 4.3 | 7.0 | 0.00 | 0.00 | 0.00 | 77 | 1012.7 |
| 20260507083621 | 52 | 225 | 4.3 | 7.0 | 0.00 | 0.00 | 0.00 | 77 | 1012.7 |
| 20260507081515 | 52 | 210 | 3.5 | 6.1 | 0.00 | 0.00 | 0.00 | 78 | 1012.6 |
| 20260507080531 | 51 | 192 | 2.6 | 4.3 | 0.00 | 0.00 | 0.00 | 79 | 1012.9 |
| 20260507075525 | 52 | 227 | 2.6 | 4.3 | 0.00 | 0.00 | 0.00 | 79 | 1013.1 |
| 20260507073312 | 52 | 221 | 4.3 | 7.0 | 0.00 | 0.00 | 0.00 | 77 | 1013.0 |
| 20260507072306 | 52 | 205 | 3.5 | 5.2 | 0.00 | 0.00 | 0.00 | 76 | 1012.8 |
| 20260507071312 | 53 | 209 | 3.5 | 7.0 | 0.00 | 0.00 | 0.00 | 75 | 1012.8 |
| 20260507070243 | 54 | 209 | 2.6 | 7.8 | 0.00 | 0.00 | 0.00 | 73 | 1012.8 |
| 20260507065305 | 54 | 227 | 1.7 | 7.8 | 0.00 | 0.00 | 0.00 | 72 | 1013.2 |
| 20260507064245 | 54 | 244 | 3.5 | 7.0 | 0.00 | 0.00 | 0.00 | 72 | 1013.2 |
| 20260507063235 | 54 | 245 | 3.5 | 7.0 | 0.00 | 0.00 | 0.00 | 70 | 1013.1 |
| 20260507062221 | 54 | 269 | 2.6 | 4.3 | 0.00 | 0.00 | 0.00 | 68 | 1013.1 |
| 20260507061220 | 56 | 264 | 0.9 | 2.6 | 0.00 | 0.00 | 0.00 | 62 | 1013.1 |
| 20260507060213 | 57 | 247 | 0.0 | 4.3 | 0.00 | 0.00 | 0.00 | 58 | 1013.2 |
| 20260507055211 | 58 | 268 | 2.6 | 7.8 | 0.00 | 0.00 | 0.00 | 55 | 1013.2 |
| 20260507054139 | 58 | 246 | 3.5 | 9.6 | 0.00 | 0.00 | 0.00 | 54 | 1013.4 |
| 20260507051951 | 60 | 321 | 6.1 | 11.3 | 0.00 | 0.00 | 0.00 | 50 | 1013.2 |
| 20260507045833 | 60 | 286 | 7.0 | 13.0 | 0.00 | 0.00 | 0.00 | 51 | 1013.5 |
| 20260507044835 | 60 | 316 | 7.8 | 13.0 | 0.00 | 0.00 | 0.00 | 51 | 1013.5 |
| 20260507042754 | 60 | 264 | 5.2 | 14.8 | 0.00 | 0.00 | 0.00 | 52 | 1013.6 |
| 20260507041734 | 60 | 266 | 7.8 | 14.8 | 0.00 | 0.00 | 0.00 | 51 | 1013.6 |
| 20260507040703 | 60 | 268 | 4.3 | 11.3 | 0.00 | 0.00 | 0.00 | 53 | 1013.6 |
| 20260507035659 | 60 | 249 | 3.5 | 7.0 | 0.00 | 0.00 | 0.00 | 54 | 1013.8 |
| 20260507034711 | 60 | 272 | 4.3 | 8.7 | 0.00 | 0.00 | 0.00 | 57 | 1013.6 |
| 20260507032627 | 61 | 302 | 6.1 | 9.6 | 0.00 | 0.00 | 0.00 | 55 | 1013.5 |
| 20260507031603 | 61 | 302 | 6.1 | 9.6 | 0.00 | 0.00 | 0.00 | 54 | 1013.5 |
| 20260507030628 | 62 | 263 | 5.2 | 9.6 | 0.00 | 0.00 | 0.00 | 54 | 1013.3 |
| 20260507025652 | 62 | 302 | 6.1 | 12.2 | 0.00 | 0.00 | 0.00 | 52 | 1013.5 |
| 20260507024655 | 63 | 313 | 7.0 | 14.8 | 0.00 | 0.00 | 0.00 | 52 | 1013.3 |
| 20260507023654 | 64 | 311 | 9.6 | 16.5 | 0.00 | 0.00 | 0.00 | 49 | 1013.0 |
| 20260507022625 | 64 | 312 | 10.4 | 16.5 | 0.00 | 0.00 | 0.00 | 48 | 1012.9 |
| 20260507021618 | 65 | 313 | 11.3 | 16.5 | 0.00 | 0.00 | 0.00 | 45 | 1012.8 |
| 20260507020620 | 65 | 306 | 9.6 | 19.1 | 0.00 | 0.00 | 0.00 | 45 | 1012.7 |
| 20260507015546 | 66 | 319 | 10.4 | 19.1 | 0.00 | 0.00 | 0.00 | 44 | 1013.3 |
| 20260507014547 | 66 | 300 | 10.4 | 14.8 | 0.00 | 0.00 | 0.00 | 43 | 1013.3 |
| 20260507013550 | 67 | 301 | 9.6 | 17.4 | 0.00 | 0.00 | 0.00 | 43 | 1013.1 |
| 20260507011407 | 67 | 310 | 13.0 | 18.2 | 0.00 | 0.00 | 0.00 | 42 | 1012.9 |
| 20260507010412 | 68 | 300 | 11.3 | 20.0 | 0.00 | 0.00 | 0.00 | 43 | 1012.9 |
| 20260507004304 | 68 | 302 | 13.0 | 20.0 | 0.00 | 0.00 | 0.00 | 43 | 1013.2 |
| 20260507003302 | 69 | 286 | 12.2 | 21.7 | 0.00 | 0.00 | 0.00 | 43 | 1012.8 |
| 20260507001234 | 71 | 294 | 13.9 | 20.0 | 0.00 | 0.00 | 0.00 | 38 | 1012.6 |
| 20260507000214 | 72 | 294 | 13.0 | 19.1 | 0.00 | 0.00 | 0.00 | 37 | 1012.5 |
| 20260506235153 | 72 | 306 | 12.2 | 18.2 | 0.00 | 0.00 | 0.00 | 39 | 1012.3 |
| 20260506234147 | 72 | 309 | 10.4 | 18.2 | 0.00 | 0.00 | 0.00 | 38 | 1012.4 |
| 20260506233128 | 73 | 327 | 10.4 | 18.2 | 0.00 | 0.00 | 0.00 | 40 | 1012.4 |
| 20260506232117 | 72 | 301 | 12.2 | 18.2 | 0.00 | 0.00 | 0.00 | 38 | 1012.4 |
| 20260506231137 | 72 | 317 | 10.4 | 15.6 | 0.00 | 0.00 | 0.00 | 39 | 1012.5 |
| 20260506230154 | 73 | 304 | 9.6 | 19.1 | 0.00 | 0.00 | 0.00 | 42 | 1012.5 |
| 20260506225201 | 73 | 332 | 12.2 | 19.1 | 0.00 | 0.00 | 0.00 | 43 | 1012.5 |
| 20260506224213 | 74 | 299 | 12.2 | 19.1 | 0.00 | 0.00 | 0.00 | 41 | 1012.4 |